Time,TemperatureF,DewpointF,PressureIn,WindDirection,WindDirectionDegrees,WindSpeedMPH,WindSpeedGustMPH,Humidity,HourlyPrecipIn,Conditions,Clouds,dailyrainin,SoftwareType,DateUTC
2013-02-15 00:01:00,42.0,42.0,30.55,WSW,253,0.0,0.0,99,0.00,,,0.01,,2013-02-15 08:01:00,
2013-02-15 00:11:00,42.0,42.0,30.55,WSW,253,0.0,0.0,99,0.00,,,0.01,,2013-02-15 08:11:00,
2013-02-15 00:21:00,42.0,42.0,30.55,WSW,256,0.0,0.0,99,0.00,,,0.01,,2013-02-15 08:21:00,
2013-02-15 00:31:00,42.0,42.0,30.55,West,270,0.0,0.0,99,0.00,,,0.01,,2013-02-15 08:31:00,
2013-02-15 00:41:00,42.0,42.0,30.55,West,270,0.0,0.0,99,0.00,,,0.01,,2013-02-15 08:41:00,
2013-02-15 00:52:00,42.0,42.0,30.54,West,269,0.0,0.0,99,0.00,,,0.01,,2013-02-15 08:52:00,
2013-02-15 01:01:00,42.0,42.0,30.54,WNW,293,0.0,0.0,99,0.00,,,0.01,,2013-02-15 09:01:00,
2013-02-15 01:12:00,42.0,42.0,30.54,WNW,293,0.0,0.0,99,0.00,,,0.01,,2013-02-15 09:12:00,
2013-02-15 01:21:00,42.0,42.0,30.54,WNW,293,0.0,0.0,99,0.00,,,0.01,,2013-02-15 09:21:00,
2013-02-15 01:31:00,42.0,42.0,30.54,North,354,0.0,0.0,99,0.00,,,0.01,,2013-02-15 09:31:00,
2013-02-15 01:41:00,42.0,42.0,30.54,North,354,0.0,0.0,99,0.00,,,0.01,,2013-02-15 09:41:00,
2013-02-15 01:51:00,42.0,42.0,30.53,North,354,0.0,0.0,99,0.00,,,0.01,,2013-02-15 09:51:00,
2013-02-15 02:01:00,42.0,42.0,30.53,North,354,0.0,0.0,99,0.00,,,0.01,,2013-02-15 10:01:00,
2013-02-15 02:11:00,42.0,42.0,30.53,North,354,0.0,0.0,99,0.00,,,0.01,,2013-02-15 10:11:00,
2013-02-15 02:21:00,42.0,42.0,30.53,North,354,0.0,0.0,99,0.00,,,0.01,,2013-02-15 10:21:00,
2013-02-15 02:31:00,42.0,42.0,30.53,North,354,0.0,0.0,99,0.00,,,0.01,,2013-02-15 10:31:00,
2013-02-15 02:41:00,42.0,42.0,30.53,North,354,0.0,0.0,99,0.00,,,0.01,,2013-02-15 10:41:00,
2013-02-15 02:51:00,42.0,42.0,30.52,NNW,340,0.0,0.0,99,0.00,,,0.01,,2013-02-15 10:51:00,
2013-02-15 03:01:00,42.0,42.0,30.52,NNW,340,0.0,0.0,99,0.00,,,0.01,,2013-02-15 11:01:00,
2013-02-15 03:11:00,42.0,42.0,30.52,NNW,340,0.0,0.0,99,0.00,,,0.01,,2013-02-15 11:11:00,
2013-02-15 03:22:00,42.0,42.0,30.51,NNW,340,0.0,0.0,99,0.00,,,0.01,,2013-02-15 11:22:00,
2013-02-15 03:31:00,42.0,42.0,30.51,NNW,340,0.0,0.0,99,0.00,,,0.01,,2013-02-15 11:31:00,
2013-02-15 03:42:00,42.0,42.0,30.51,NNW,340,0.0,0.0,99,0.00,,,0.01,,2013-02-15 11:42:00,
2013-02-15 03:52:00,42.0,42.0,30.50,WNW,288,0.0,0.0,99,0.00,,,0.01,,2013-02-15 11:52:00,
2013-02-15 04:01:00,42.0,42.0,30.50,WNW,290,0.0,0.0,99,0.00,,,0.01,,2013-02-15 12:01:00,
2013-02-15 04:11:00,42.0,42.0,30.50,WNW,290,0.0,0.0,99,0.00,,,0.01,,2013-02-15 12:11:00,
2013-02-15 04:21:00,42.0,42.0,30.50,NW,306,0.0,0.0,99,0.00,,,0.01,,2013-02-15 12:21:00,
2013-02-15 04:31:00,42.0,42.0,30.49,WNW,287,0.0,0.0,99,0.00,,,0.01,,2013-02-15 12:31:00,
2013-02-15 04:42:00,42.0,42.0,30.49,WNW,287,0.0,0.0,99,0.00,,,0.01,,2013-02-15 12:42:00,
2013-02-15 04:52:00,42.0,42.0,30.48,WNW,286,0.0,0.0,99,0.00,,,0.01,,2013-02-15 12:52:00,
2013-02-15 05:02:00,42.0,42.0,30.48,ENE,72,0.0,0.0,99,0.00,,,0.01,,2013-02-15 13:02:00,
2013-02-15 05:11:00,42.0,42.0,30.48,ENE,72,0.0,0.0,99,0.00,,,0.01,,2013-02-15 13:11:00,
2013-02-15 05:21:00,42.0,42.0,30.48,ENE,71,0.0,0.0,99,0.00,,,0.01,,2013-02-15 13:21:00,
2013-02-15 05:31:00,42.0,42.0,30.48,ENE,71,0.0,0.0,99,0.00,,,0.01,,2013-02-15 13:31:00,
2013-02-15 05:41:00,42.0,42.0,30.48,ENE,71,0.0,0.0,99,0.00,,,0.01,,2013-02-15 13:41:00,
2013-02-15 05:51:00,42.0,42.0,30.48,ENE,71,0.0,0.0,99,0.00,,,0.01,,2013-02-15 13:51:00,
2013-02-15 06:01:00,42.0,42.0,30.47,ENE,71,0.0,0.0,99,0.00,,,0.01,,2013-02-15 14:01:00,
2013-02-15 06:11:00,42.0,42.0,30.47,ENE,71,0.0,0.0,99,0.00,,,0.01,,2013-02-15 14:11:00,
2013-02-15 06:21:00,42.0,42.0,30.47,ENE,71,0.0,0.0,99,0.00,,,0.01,,2013-02-15 14:21:00,
2013-02-15 06:32:00,42.0,42.0,30.46,East,84,0.0,0.0,99,0.00,,,0.01,,2013-02-15 14:32:00,
2013-02-15 06:41:00,42.0,42.0,30.46,East,84,0.0,0.0,99,0.00,,,0.01,,2013-02-15 14:41:00,
2013-02-15 06:52:00,42.0,42.0,30.46,East,84,0.0,0.0,99,0.00,,,0.01,,2013-02-15 14:52:00,
2013-02-15 07:01:00,42.0,42.0,30.46,East,84,0.0,0.0,99,0.00,,,0.01,,2013-02-15 15:01:00,
2013-02-15 07:11:00,42.0,42.0,30.46,East,84,0.0,0.0,99,0.00,,,0.01,,2013-02-15 15:11:00,
2013-02-15 07:21:00,42.0,42.0,30.45,East,84,0.0,0.0,99,0.00,,,0.01,,2013-02-15 15:21:00,
2013-02-15 07:32:00,42.0,42.0,30.45,East,84,0.0,0.0,99,0.00,,,0.01,,2013-02-15 15:32:00,
2013-02-15 07:41:00,42.0,42.0,30.45,East,84,0.0,0.0,99,0.00,,,0.01,,2013-02-15 15:41:00,
2013-02-15 07:52:00,42.0,42.0,30.45,East,84,0.0,0.0,99,0.00,,,0.01,,2013-02-15 15:52:00,
2013-02-15 08:01:00,42.0,42.0,30.45,East,84,0.0,0.0,99,0.00,,,0.01,,2013-02-15 16:01:00,
2013-02-15 08:11:00,42.0,42.0,30.45,East,84,0.0,0.0,99,0.00,,,0.01,,2013-02-15 16:11:00,
2013-02-15 08:22:00,42.0,42.0,30.45,East,84,0.0,0.0,99,0.00,,,0.01,,2013-02-15 16:22:00,
2013-02-15 08:31:00,42.0,42.0,30.44,East,84,0.0,0.0,99,0.00,,,0.01,,2013-02-15 16:31:00,
2013-02-15 08:42:00,42.0,42.0,30.44,East,84,0.0,0.0,99,0.00,,,0.01,,2013-02-15 16:42:00,
2013-02-15 08:51:00,43.0,43.0,30.45,East,98,0.0,0.0,99,0.00,,,0.01,,2013-02-15 16:51:00,
2013-02-15 09:01:00,43.0,43.0,30.44,ENE,75,0.0,2.0,99,0.00,,,0.01,,2013-02-15 17:01:00,
2013-02-15 09:11:00,44.0,43.0,30.44,ENE,58,0.0,0.0,97,0.00,,,0.01,,2013-02-15 17:11:00,
2013-02-15 09:21:00,44.0,43.0,30.44,ENE,58,0.0,0.0,97,0.00,,,0.01,,2013-02-15 17:21:00,
2013-02-15 09:32:00,44.0,43.0,30.43,NE,49,0.0,3.0,96,0.00,,,0.01,,2013-02-15 17:32:00,
2013-02-15 09:41:00,44.0,43.0,30.43,NE,49,0.0,3.0,96,0.00,,,0.01,,2013-02-15 17:41:00,
2013-02-15 09:52:00,44.0,43.0,30.43,NW,312,1.0,6.0,95,0.00,,,0.01,,2013-02-15 17:52:00,
2013-02-15 10:01:00,44.0,43.0,30.43,NE,48,0.0,3.0,95,0.00,,,0.01,,2013-02-15 18:01:00,
2013-02-15 10:11:00,44.0,43.0,30.43,NE,48,0.0,3.0,95,0.00,,,0.01,,2013-02-15 18:11:00,
2013-02-15 10:21:00,45.0,43.0,30.43,WNW,301,0.0,4.0,93,0.00,,,0.01,,2013-02-15 18:21:00,
2013-02-15 10:31:00,45.0,43.0,30.42,ENE,75,1.0,5.0,92,0.00,,,0.00,,2013-02-15 18:31:00,
2013-02-15 10:41:00,45.0,43.0,30.42,ENE,75,1.0,5.0,92,0.00,,,0.00,,2013-02-15 18:41:00,
2013-02-15 10:52:00,46.0,44.0,30.42,WNW,287,2.0,7.0,91,0.00,,,0.00,,2013-02-15 18:52:00,
2013-02-15 11:01:00,46.0,43.0,30.42,NNE,19,1.0,8.0,90,0.00,,,0.00,,2013-02-15 19:01:00,
2013-02-15 11:11:00,46.0,43.0,30.42,NNE,19,1.0,8.0,90,0.00,,,0.00,,2013-02-15 19:11:00,
2013-02-15 11:21:00,46.0,43.0,30.41,WSW,255,0.0,8.0,89,0.00,,,0.00,,2013-02-15 19:21:00,
2013-02-15 11:31:00,47.0,44.0,30.41,West,273,0.0,6.0,88,0.00,,,0.00,,2013-02-15 19:31:00,
2013-02-15 11:41:00,47.0,44.0,30.41,West,273,0.0,6.0,88,0.00,,,0.00,,2013-02-15 19:41:00,
2013-02-15 11:52:00,47.0,44.0,30.40,NW,320,2.0,6.0,88,0.00,,,0.00,,2013-02-15 19:52:00,
2013-02-15 12:01:00,47.0,44.0,30.40,NW,322,0.0,7.0,88,0.00,,,0.00,,2013-02-15 20:01:00,
2013-02-15 12:11:00,47.0,44.0,30.40,NW,322,0.0,7.0,88,0.00,,,0.00,,2013-02-15 20:11:00,
2013-02-15 12:21:00,48.0,44.0,30.39,NW,304,2.0,8.0,86,0.00,,,0.00,,2013-02-15 20:21:00,
2013-02-15 12:32:00,47.0,44.0,30.38,NNW,333,1.0,6.0,88,0.00,,,0.00,,2013-02-15 20:32:00,
2013-02-15 12:42:00,47.0,44.0,30.38,NNW,333,1.0,6.0,88,0.00,,,0.00,,2013-02-15 20:42:00,
2013-02-15 12:52:00,48.0,44.0,30.37,NW,308,1.0,6.0,86,0.00,,,0.00,,2013-02-15 20:52:00,
2013-02-15 13:01:00,48.0,44.0,30.36,WNW,285,2.0,6.0,85,0.00,,,0.00,,2013-02-15 21:01:00,
2013-02-15 13:11:00,48.0,44.0,30.36,WNW,285,2.0,6.0,85,0.00,,,0.00,,2013-02-15 21:11:00,
2013-02-15 13:21:00,49.0,44.0,30.35,ENE,57,1.0,8.0,84,0.00,,,0.00,,2013-02-15 21:21:00,
2013-02-15 13:31:00,49.0,44.0,30.34,WNW,297,1.0,6.0,83,0.00,,,0.00,,2013-02-15 21:31:00,
2013-02-15 13:42:00,49.0,44.0,30.34,WNW,297,1.0,6.0,83,0.00,,,0.00,,2013-02-15 21:42:00,
2013-02-15 13:52:00,51.0,45.0,30.33,West,273,1.0,4.0,81,0.00,,,0.00,,2013-02-15 21:52:00,
2013-02-15 14:01:00,51.0,45.0,30.32,WNW,286,3.0,7.0,79,0.00,,,0.00,,2013-02-15 22:01:00,
2013-02-15 14:11:00,51.0,45.0,30.32,WNW,286,3.0,7.0,79,0.00,,,0.00,,2013-02-15 22:11:00,
2013-02-15 14:21:00,52.0,46.0,30.30,West,274,2.0,6.0,79,0.00,,,0.00,,2013-02-15 22:21:00,
2013-02-15 14:31:00,52.0,45.0,30.29,NW,312,2.0,6.0,78,0.00,,,0.00,,2013-02-15 22:31:00,
2013-02-15 14:41:00,52.0,45.0,30.29,NW,312,2.0,6.0,78,0.00,,,0.00,,2013-02-15 22:41:00,
2013-02-15 14:52:00,52.0,45.0,30.29,NW,312,2.0,6.0,78,0.00,,,0.00,,2013-02-15 22:52:00,
2013-02-15 15:02:00,54.0,46.0,30.29,West,277,1.0,5.0,75,0.00,,,0.00,,2013-02-15 23:02:00,
2013-02-15 15:11:00,54.0,46.0,30.29,West,277,1.0,5.0,75,0.00,,,0.00,,2013-02-15 23:11:00,
2013-02-15 15:21:00,55.0,47.0,30.28,WNW,301,1.0,6.0,74,0.00,,,0.00,,2013-02-15 23:21:00,
2013-02-15 15:31:00,55.0,46.0,30.28,East,91,1.0,5.0,71,0.00,,,0.00,,2013-02-15 23:31:00,
2013-02-15 15:41:00,55.0,46.0,30.28,East,91,1.0,5.0,71,0.00,,,0.00,,2013-02-15 23:41:00,
2013-02-15 15:52:00,55.0,46.0,30.27,North,350,1.0,5.0,71,0.00,,,0.00,,2013-02-15 23:52:00,
2013-02-15 16:01:00,54.0,46.0,30.26,NW,310,1.0,6.0,73,0.00,,,0.00,,2013-02-16 00:01:00,
2013-02-15 16:11:00,54.0,46.0,30.26,NW,310,1.0,6.0,73,0.00,,,0.00,,2013-02-16 00:11:00,
2013-02-15 16:21:00,55.0,47.0,30.26,West,266,2.0,5.0,73,0.00,,,0.00,,2013-02-16 00:21:00,
2013-02-15 16:31:00,54.0,46.0,30.25,West,266,1.0,4.0,74,0.00,,,0.00,,2013-02-16 00:31:00,
2013-02-15 16:41:00,54.0,46.0,30.25,West,266,1.0,4.0,74,0.00,,,0.00,,2013-02-16 00:41:00,
2013-02-15 16:52:00,54.0,46.0,30.25,West,262,0.0,5.0,75,0.00,,,0.00,,2013-02-16 00:52:00,
2013-02-15 17:02:00,53.0,46.0,30.24,West,271,0.0,3.0,77,0.00,,,0.00,,2013-02-16 01:02:00,
2013-02-15 17:11:00,53.0,46.0,30.24,West,271,0.0,3.0,77,0.00,,,0.00,,2013-02-16 01:11:00,
2013-02-15 17:21:00,52.0,45.0,30.24,NW,324,0.0,4.0,78,0.00,,,0.00,,2013-02-16 01:21:00,
2013-02-15 17:31:00,51.0,45.0,30.24,West,264,0.0,4.0,80,0.00,,,0.00,,2013-02-16 01:31:00,
2013-02-15 17:41:00,51.0,45.0,30.24,West,264,0.0,4.0,80,0.00,,,0.00,,2013-02-16 01:41:00,
2013-02-15 17:52:00,50.0,45.0,30.23,WNW,288,0.0,2.0,82,0.00,,,0.00,,2013-02-16 01:52:00,
2013-02-15 18:01:00,49.0,45.0,30.23,NW,304,0.0,0.0,85,0.00,,,0.00,,2013-02-16 02:01:00,
2013-02-15 18:11:00,49.0,45.0,30.23,NW,304,0.0,0.0,85,0.00,,,0.00,,2013-02-16 02:11:00,
2013-02-15 18:21:00,47.0,44.0,30.22,WNW,283,0.0,0.0,88,0.00,,,0.00,,2013-02-16 02:21:00,
2013-02-15 18:31:00,47.0,44.0,30.22,WNW,283,0.0,0.0,88,0.00,,,0.00,,2013-02-16 02:31:00,
2013-02-15 18:42:00,47.0,44.0,30.22,WNW,283,0.0,0.0,88,0.00,,,0.00,,2013-02-16 02:42:00,
2013-02-15 18:52:00,44.0,42.0,30.22,WNW,283,0.0,0.0,93,0.00,,,0.00,,2013-02-16 02:52:00,
2013-02-15 19:01:00,43.0,41.0,30.23,WNW,283,0.0,0.0,94,0.00,,,0.00,,2013-02-16 03:01:00,
2013-02-15 19:11:00,43.0,41.0,30.23,WNW,283,0.0,0.0,94,0.00,,,0.00,,2013-02-16 03:11:00,
2013-02-15 19:21:00,42.0,41.0,30.23,WNW,283,0.0,0.0,96,0.00,,,0.00,,2013-02-16 03:21:00,
2013-02-15 19:31:00,41.0,40.0,30.23,WNW,283,0.0,0.0,96,0.00,,,0.00,,2013-02-16 03:31:00,
2013-02-15 19:41:00,41.0,40.0,30.23,WNW,283,0.0,0.0,96,0.00,,,0.00,,2013-02-16 03:41:00,
2013-02-15 19:52:00,40.0,39.0,30.23,NNW,346,0.0,0.0,96,0.00,,,0.00,,2013-02-16 03:52:00,
2013-02-15 20:01:00,40.0,39.0,30.23,NNW,346,0.0,0.0,97,0.00,,,0.00,,2013-02-16 04:01:00,
2013-02-15 20:11:00,40.0,39.0,30.23,NNW,346,0.0,0.0,97,0.00,,,0.00,,2013-02-16 04:11:00,
2013-02-15 20:21:00,39.0,38.0,30.24,NNW,346,0.0,0.0,97,0.00,,,0.00,,2013-02-16 04:21:00,
2013-02-15 20:31:00,38.0,37.0,30.23,NNW,346,0.0,0.0,97,0.00,,,0.00,,2013-02-16 04:31:00,
2013-02-15 20:41:00,38.0,37.0,30.23,NNW,346,0.0,0.0,97,0.00,,,0.00,,2013-02-16 04:41:00,
2013-02-15 20:52:00,38.0,37.0,30.23,NNW,346,0.0,0.0,98,0.00,,,0.00,,2013-02-16 04:52:00,
2013-02-15 21:01:00,38.0,37.0,30.23,NNW,346,0.0,0.0,98,0.00,,,0.00,,2013-02-16 05:01:00,
2013-02-15 21:11:00,38.0,37.0,30.23,NNW,346,0.0,0.0,98,0.00,,,0.00,,2013-02-16 05:11:00,
2013-02-15 21:21:00,37.0,36.0,30.23,NNW,346,0.0,0.0,98,0.00,,,0.00,,2013-02-16 05:21:00,
2013-02-15 21:31:00,37.0,36.0,30.23,NNW,346,0.0,0.0,98,0.00,,,0.00,,2013-02-16 05:31:00,
2013-02-15 21:42:00,37.0,36.0,30.23,NNW,346,0.0,0.0,98,0.00,,,0.00,,2013-02-16 05:42:00,
2013-02-15 21:52:00,36.0,35.0,30.23,NNW,346,0.0,0.0,98,0.00,,,0.00,,2013-02-16 05:52:00,
2013-02-15 22:01:00,36.0,35.0,30.23,NNW,346,0.0,0.0,98,0.00,,,0.00,,2013-02-16 06:01:00,
2013-02-15 22:11:00,36.0,35.0,30.23,NNW,346,0.0,0.0,98,0.00,,,0.00,,2013-02-16 06:11:00,
2013-02-15 22:21:00,35.0,34.0,30.23,NNW,346,0.0,0.0,98,0.00,,,0.00,,2013-02-16 06:21:00,
2013-02-15 22:32:00,35.0,34.0,30.23,NNW,346,0.0,0.0,98,0.00,,,0.00,,2013-02-16 06:32:00,
2013-02-15 22:41:00,35.0,34.0,30.23,NNW,346,0.0,0.0,98,0.00,,,0.00,,2013-02-16 06:41:00,
2013-02-15 22:52:00,35.0,34.0,30.22,NNW,346,0.0,0.0,98,0.00,,,0.00,,2013-02-16 06:52:00,
2013-02-15 23:02:00,35.0,34.0,30.22,NNW,346,0.0,0.0,98,0.00,,,0.00,,2013-02-16 07:02:00,
2013-02-15 23:11:00,35.0,34.0,30.22,NNW,346,0.0,0.0,98,0.00,,,0.00,,2013-02-16 07:11:00,
2013-02-15 23:21:00,35.0,34.0,30.22,NNW,346,0.0,0.0,98,0.00,,,0.00,,2013-02-16 07:21:00,
2013-02-15 23:31:00,34.0,34.0,30.21,NNW,346,0.0,0.0,99,0.00,,,0.00,,2013-02-16 07:31:00,
2013-02-15 23:41:00,34.0,34.0,30.21,NNW,346,0.0,0.0,99,0.00,,,0.00,,2013-02-16 07:41:00,
2013-02-15 23:53:00,34.0,34.0,30.21,NNW,346,0.0,0.0,98,0.00,,,0.00,,2013-02-16 07:53:00,